Вернуться в каталог

THORAD DELTA 1 DEB

АктивенSSO
NORAD 8788·DEBRIS·🇺🇸 United States

Запущен Nov 15, 1974 с Vandenberg Space Force Base

Loading…

Ближайшие Пролёты (ближайшие 24 часа)

TLE

СвежийSource: Space-Track

Эпоха: Sep 14, 2026, 12:29 UTC

1 08788U 74089DQ  26257.52016475  .00000071  00000-0  86839-3 0  9996
2 08788 102.0950 356.3923 0070768 279.6686 147.4899 12.39849576346215

Отслеживайте THORAD DELTA 1 DEB в реальном времени с AllMySat

Download on the App Store